Regional Weather Roundup
Issued by NWS

Home | Current Version | Previous Version | Text Only | Print | Product List | Glossary Off
Versions: 1 2 3 4 5 6 7 8 9 10 11 12 13 14 15 16 17 18 19 20 21 22 23 24 25 26 27 28 29 30 31 32 33 34 35 36 37 38 39 40 41 42 43 44 45 46 47 48 49 50

000
ASUS43 KLMK 041610
RWRKY
KENTUCKY REGIONAL WEATHER ROUNDUP
NATIONAL WEATHER SERVICE LOUISVILLE KY
1200 PM EDT SAT JUL 04 2015

NOTE "FAIR" INDICATES FEW OR NO CLOUDS BELOW 12,000 FEET
WITH NO SIGNIFICANT WEATHER AND/OR OBSTRUCTIONS TO VISIBILITY.

KYZ001>023-026-027-061>063-070>075-041700-
WESTERN AND SOUTH CENTRAL KENTUCKY

CITY           SKY/WX    TMP DP  RH WIND       PRES   REMARKS
PADUCAH        PTSUNNY   77  68  73 E3        30.01R
HENDERSON      MOSUNNY   75  66  73 N5        29.99F
OWENSBORO      PTSUNNY   78  67  68 CALM      30.01S
HOPKINSVILLE   CLOUDY    77  70  78 N5        30.00S
BOWLING GREEN  CLOUDY    77  68  73 VRB5      30.01S
GLASGOW        PTSUNNY   77  67  71 SW5       30.02R
$$

KYZ024-025-028>034-038-045-046-053-041700-
NORTH CENTRAL KENTUCKY

CITY           SKY/WX    TMP DP  RH WIND       PRES   REMARKS
LOUISVILLE/SDF CLOUDY    77  66  68 CALM      30.01R
LOUISVILLE/LOU CLOUDY    77  66  68 CALM      30.01S
FORT KNOX      PTSUNNY   75  68  78 NE6       30.01R
$$

KYZ035>037-039>044-047>052-055>060-089>105-041700-
NORTHEAST KENTUCKY

CITY           SKY/WX    TMP DP  RH WIND       PRES   REMARKS
LEXINGTON      CLOUDY    74  67  78 N3        30.03R
COVINGTON      PTSUNNY   75  60  59 CALM      30.03R
FRANKFORT      PTSUNNY   75  65  70 NE5       30.01S
$$

KYZ054-064>069-076>088-106>120-041700-
SOUTHEAST KENTUCKY

CITY           SKY/WX    TMP DP  RH WIND       PRES   REMARKS
JACKSON        PTSUNNY   74  67  78 CALM      30.03S
LONDON         PTSUNNY   77  64  64 W8        30.03R
SOMERSET       CLOUDY    72  68  88 S3        30.04S
MIDDLESBORO    CLOUDY    77  69  77 W5        30.04S
MONTICELLO     CLOUDY    76  71  84 W5        30.06R
$$



USA.gov is the U.S. government's official web portal to all federal, state and local government web resources and services.